Location: Wiler
(46.4041°N, 7.7840°E)
Time: 21:39:00
(UTC+00:00)

Cosmos 1076 Rocket - Pass Details

Date: 09 April 2020
Orbit: 590 x 612 km, 82.5° (Epoch: 23 May)

Event Time Altitude Azimuth Distance (km) Brightness Sun altitude
Rises 19:38:44 0° 357° (N) 2,849 7.4 -15.2°
Reaches altitude 10° 19:41:04 10° 6° (N) 1,945 6.4 -15.6°
Maximum altitude 19:45:06 39° 75° (ENE) 913 4.1 -16.2°
Enters shadow 19:46:22 31° 114° (ESE) 1,060 4.2 -16.4°
